Time,TemperatureF,DewpointF,PressureIn,WindDirection,WindDirectionDegrees,WindSpeedMPH,WindSpeedGustMPH,Humidity,HourlyPrecipIn,Conditions,Clouds,dailyrainin,SolarRadiationWatts/m^2,SoftwareType,DateUTC
2013-01-24 00:00:00,32.5,17.3,30.08,South,175,1.0,7.0,53,0.00,,---,0.00,0.00,VWS V14.00,2013-01-24 05:00:00,
2013-01-24 00:01:00,32.5,17.3,30.08,SW,232,0.0,4.0,53,0.00,,---,0.00,0.00,VWS V14.00,2013-01-24 05:01:00,
2013-01-24 00:03:00,32.5,17.3,30.07,SW,222,2.0,4.0,53,0.00,,---,0.00,0.00,VWS V14.00,2013-01-24 05:03:00,
2013-01-24 00:08:00,32.5,17.7,30.07,South,182,1.0,6.0,54,0.00,,---,0.00,0.00,VWS V14.00,2013-01-24 05:08:00,
2013-01-24 00:13:00,32.7,18.3,30.06,South,175,6.0,7.0,55,0.00,,---,0.00,0.00,VWS V14.00,2013-01-24 05:13:00,
2013-01-24 00:18:00,32.7,18.3,30.06,SSW,207,4.0,7.0,55,0.00,,---,0.00,0.00,VWS V14.00,2013-01-24 05:18:00,
2013-01-24 00:23:00,32.8,18.8,30.06,South,173,2.0,7.0,56,0.00,,---,0.00,0.00,VWS V14.00,2013-01-24 05:23:00,
2013-01-24 00:28:00,32.8,19.3,30.06,SSW,207,3.0,7.0,57,0.00,,---,0.00,0.00,VWS V14.00,2013-01-24 05:28:00,
2013-01-24 00:33:00,32.8,19.7,30.06,SSW,194,2.0,6.0,58,0.00,,---,0.00,0.00,VWS V14.00,2013-01-24 05:33:00,
2013-01-24 00:38:00,32.9,20.2,30.05,SSW,192,0.0,6.0,59,0.00,,---,0.00,0.00,VWS V14.00,2013-01-24 05:38:00,
2013-01-24 00:43:00,33.1,20.7,30.05,South,187,3.0,7.0,60,0.00,,---,0.00,0.00,VWS V14.00,2013-01-24 05:43:00,
2013-01-24 00:48:00,33.1,21.1,30.05,South,188,3.0,7.0,61,0.00,,---,0.00,0.00,VWS V14.00,2013-01-24 05:48:00,
2013-01-24 00:53:00,33.2,21.2,30.05,SSW,192,0.0,7.0,61,0.00,,---,0.00,0.00,VWS V14.00,2013-01-24 05:53:00,
2013-01-24 00:58:00,33.2,21.6,30.04,SSW,207,2.0,7.0,62,0.00,,---,0.00,0.00,VWS V14.00,2013-01-24 05:58:00,
2013-01-24 01:03:00,33.2,22.0,30.04,SSE,157,1.0,4.0,63,0.00,,---,0.00,0.00,VWS V14.00,2013-01-24 06:03:00,
2013-01-24 01:08:00,33.4,22.5,30.03,South,190,1.0,8.0,64,0.00,,---,0.00,0.00,VWS V14.00,2013-01-24 06:08:00,
2013-01-24 01:13:00,33.4,22.5,30.03,South,190,1.0,8.0,64,0.00,,---,0.00,0.00,VWS V14.00,2013-01-24 06:13:00,
2013-01-24 01:18:00,33.4,22.9,30.03,South,176,0.0,8.0,65,0.00,,---,0.00,0.00,VWS V14.00,2013-01-24 06:18:00,
2013-01-24 01:23:00,33.5,23.0,30.03,SW,225,0.0,8.0,65,0.00,,---,0.00,0.00,VWS V14.00,2013-01-24 06:23:00,
2013-01-24 01:28:00,33.5,23.4,30.03,SSW,197,3.0,8.0,66,0.00,,---,0.00,0.00,VWS V14.00,2013-01-24 06:28:00,
2013-01-24 01:33:00,33.5,23.7,30.03,SSW,205,0.0,6.0,67,0.00,,---,0.00,0.00,VWS V14.00,2013-01-24 06:33:00,
2013-01-24 01:38:00,33.5,23.7,30.03,SSW,202,3.0,6.0,67,0.00,,---,0.00,0.00,VWS V14.00,2013-01-24 06:38:00,
2013-01-24 01:43:00,33.7,23.9,30.02,SSW,194,0.0,7.0,67,0.00,,---,0.00,0.00,VWS V14.00,2013-01-24 06:43:00,
2013-01-24 01:48:00,33.7,23.9,30.02,SW,221,3.0,8.0,67,0.00,,---,0.00,0.00,VWS V14.00,2013-01-24 06:48:00,
2013-01-24 01:53:00,34.0,24.2,30.02,SSW,198,2.0,8.0,67,0.00,,---,0.00,0.00,VWS V14.00,2013-01-24 06:53:00,
2013-01-24 01:58:00,34.0,24.2,30.02,South,187,5.0,8.0,67,0.00,,---,0.00,0.00,VWS V14.00,2013-01-24 06:58:00,
2013-01-24 02:03:00,34.0,24.2,30.02,South,187,5.0,6.0,67,0.00,,---,0.00,0.00,VWS V14.00,2013-01-24 07:03:00,
2013-01-24 02:08:00,34.1,24.3,30.02,SSW,213,0.0,6.0,67,0.00,,---,0.00,0.00,VWS V14.00,2013-01-24 07:08:00,
2013-01-24 02:13:00,34.1,24.3,30.02,South,189,0.0,6.0,67,0.00,,---,0.00,0.00,VWS V14.00,2013-01-24 07:13:00,
2013-01-24 02:18:00,34.0,24.2,30.02,SW,224,2.0,6.0,67,0.00,,---,0.00,0.00,VWS V14.00,2013-01-24 07:18:00,
2013-01-24 02:23:00,34.0,24.6,30.01,SW,227,0.0,6.0,68,0.00,,---,0.00,0.00,VWS V14.00,2013-01-24 07:23:00,
2013-01-24 02:28:00,33.8,24.4,30.01,South,180,0.0,6.0,68,0.00,,---,0.00,0.00,VWS V14.00,2013-01-24 07:28:00,
2013-01-24 02:33:00,33.8,24.0,30.01,South,175,0.0,2.0,67,0.00,,---,0.00,0.00,VWS V14.00,2013-01-24 07:33:00,
2013-01-24 02:38:00,33.8,24.4,30.01,South,172,0.0,3.0,68,0.00,,---,0.00,0.00,VWS V14.00,2013-01-24 07:38:00,
2013-01-24 02:43:00,33.8,24.4,30.01,SSW,199,0.0,3.0,68,0.00,,---,0.00,0.00,VWS V14.00,2013-01-24 07:43:00,
2013-01-24 02:48:00,33.8,24.7,30.00,SSW,199,0.0,3.0,69,0.00,,---,0.00,0.00,VWS V14.00,2013-01-24 07:48:00,
2013-01-24 02:53:00,33.7,24.3,30.01,SSW,199,0.0,3.0,68,0.00,,---,0.00,0.00,VWS V14.00,2013-01-24 07:53:00,
2013-01-24 02:58:00,33.7,24.3,30.01,SSW,199,0.0,3.0,68,0.00,,---,0.00,0.00,VWS V14.00,2013-01-24 07:58:00,
2013-01-24 03:03:00,33.5,24.1,30.01,SSW,199,0.0,0.0,68,0.00,,---,0.00,0.00,VWS V14.00,2013-01-24 08:03:00,
2013-01-24 03:08:00,33.5,24.1,30.00,SSW,199,0.0,1.0,68,0.00,,---,0.00,0.00,VWS V14.00,2013-01-24 08:08:00,
2013-01-24 03:13:00,33.4,24.3,30.00,SSW,199,0.0,1.0,69,0.00,,---,0.00,0.00,VWS V14.00,2013-01-24 08:13:00,
2013-01-24 03:18:00,33.2,24.1,30.00,SSW,199,0.0,1.0,69,0.00,,---,0.00,0.00,VWS V14.00,2013-01-24 08:18:00,
2013-01-24 03:23:00,33.1,24.0,30.00,SSW,199,0.0,1.0,69,0.00,,---,0.00,0.00,VWS V14.00,2013-01-24 08:23:00,
2013-01-24 03:28:00,33.1,24.4,30.00,SW,217,0.0,2.0,70,0.00,,---,0.00,0.00,VWS V14.00,2013-01-24 08:28:00,
2013-01-24 03:33:00,32.9,24.2,30.00,SW,217,0.0,0.0,70,0.00,,---,0.00,0.00,VWS V14.00,2013-01-24 08:33:00,
2013-01-24 03:38:00,32.8,24.1,29.99,SW,217,0.0,0.0,70,0.00,,---,0.00,0.00,VWS V14.00,2013-01-24 08:38:00,
2013-01-24 03:43:00,32.7,24.0,29.99,SW,217,0.0,1.0,70,0.00,,---,0.00,0.00,VWS V14.00,2013-01-24 08:43:00,
2013-01-24 03:48:00,32.5,24.2,29.99,SW,217,0.0,1.0,71,0.00,,---,0.00,0.00,VWS V14.00,2013-01-24 08:48:00,
2013-01-24 03:53:00,32.4,24.1,29.99,SW,217,0.0,1.0,71,0.00,,---,0.00,0.00,VWS V14.00,2013-01-24 08:53:00,
2013-01-24 03:58:00,32.4,24.1,29.99,SW,217,0.0,1.0,71,0.00,,---,0.00,0.00,VWS V14.00,2013-01-24 08:58:00,
2013-01-24 04:03:00,32.4,24.4,29.99,SW,217,0.0,0.0,72,0.00,,---,0.00,0.00,VWS V14.00,2013-01-24 09:03:00,
2013-01-24 04:08:00,32.2,24.2,29.99,SW,217,0.0,0.0,72,0.00,,---,0.00,0.00,VWS V14.00,2013-01-24 09:08:00,
2013-01-24 04:13:00,32.2,24.2,29.99,SW,217,0.0,1.0,72,0.00,,---,0.00,0.00,VWS V14.00,2013-01-24 09:13:00,
2013-01-24 04:18:00,32.2,24.5,29.99,SW,217,0.0,1.0,73,0.00,,---,0.00,0.00,VWS V14.00,2013-01-24 09:18:00,
2013-01-24 04:23:00,32.2,24.5,29.98,SW,220,0.0,1.0,73,0.00,,---,0.00,0.00,VWS V14.00,2013-01-24 09:23:00,
2013-01-24 04:28:00,32.2,24.2,29.98,SW,220,0.0,1.0,72,0.00,,---,0.00,0.00,VWS V14.00,2013-01-24 09:28:00,
2013-01-24 04:33:00,32.2,24.2,29.98,SW,220,0.0,0.0,72,0.00,,---,0.00,0.00,VWS V14.00,2013-01-24 09:33:00,
2013-01-24 04:38:00,32.2,24.2,29.98,SW,220,0.0,0.0,72,0.00,,---,0.00,0.00,VWS V14.00,2013-01-24 09:38:00,
2013-01-24 04:43:00,32.2,24.5,29.98,SW,220,0.0,1.0,73,0.00,,---,0.00,0.00,VWS V14.00,2013-01-24 09:43:00,
2013-01-24 04:48:00,32.4,24.7,29.98,SW,220,0.0,1.0,73,0.00,,---,0.00,0.00,VWS V14.00,2013-01-24 09:48:00,
2013-01-24 04:53:00,32.4,24.7,29.99,SW,220,0.0,1.0,73,0.00,,---,0.00,0.00,VWS V14.00,2013-01-24 09:53:00,
2013-01-24 04:58:00,32.4,24.7,29.98,SW,220,0.0,1.0,73,0.00,,---,0.00,0.00,VWS V14.00,2013-01-24 09:58:00,
2013-01-24 05:03:00,32.4,24.7,29.99,SW,220,0.0,1.0,73,0.00,,---,0.00,0.00,VWS V14.00,2013-01-24 10:03:00,
2013-01-24 05:08:00,32.2,24.5,29.99,SW,220,0.0,1.0,73,0.00,,---,0.00,0.00,VWS V14.00,2013-01-24 10:08:00,
2013-01-24 05:13:00,32.2,24.5,29.99,SW,220,0.0,1.0,73,0.00,,---,0.00,0.00,VWS V14.00,2013-01-24 10:13:00,
2013-01-24 05:18:00,32.2,24.9,29.99,SW,220,0.0,1.0,74,0.00,,---,0.00,0.00,VWS V14.00,2013-01-24 10:18:00,
2013-01-24 05:23:00,32.2,24.9,29.99,SW,220,0.0,1.0,74,0.00,,---,0.00,0.00,VWS V14.00,2013-01-24 10:23:00,
2013-01-24 05:28:00,32.1,24.8,30.00,SW,220,0.0,1.0,74,0.00,,---,0.00,0.00,VWS V14.00,2013-01-24 10:28:00,
2013-01-24 05:33:00,32.2,25.2,30.00,SW,220,0.0,0.0,75,0.00,,---,0.00,0.00,VWS V14.00,2013-01-24 10:33:00,
2013-01-24 05:38:00,32.2,25.2,30.00,SW,220,0.0,0.0,75,0.00,,---,0.00,0.00,VWS V14.00,2013-01-24 10:38:00,
2013-01-24 05:43:00,32.2,25.2,30.00,SW,220,0.0,0.0,75,0.00,,---,0.00,0.00,VWS V14.00,2013-01-24 10:43:00,
2013-01-24 05:48:00,32.4,25.4,30.00,SW,220,0.0,0.0,75,0.00,,---,0.00,0.00,VWS V14.00,2013-01-24 10:48:00,
2013-01-24 05:53:00,32.5,25.5,30.00,SW,220,0.0,1.0,75,0.00,,---,0.00,0.00,VWS V14.00,2013-01-24 10:53:00,
2013-01-24 05:58:00,32.7,25.7,30.01,SW,220,0.0,1.0,75,0.00,,---,0.00,0.00,VWS V14.00,2013-01-24 10:58:00,
2013-01-24 06:03:00,32.8,26.1,30.01,SW,220,0.0,0.0,76,0.00,,---,0.00,0.00,VWS V14.00,2013-01-24 11:03:00,
2013-01-24 06:08:00,33.1,26.0,30.00,SW,220,0.0,0.0,75,0.00,,---,0.00,0.00,VWS V14.00,2013-01-24 11:08:00,
2013-01-24 06:13:00,33.2,26.5,30.01,SW,220,1.0,1.0,76,0.00,,---,0.00,0.00,VWS V14.00,2013-01-24 11:13:00,
2013-01-24 06:18:00,33.4,26.3,30.01,WSW,242,0.0,2.0,75,0.00,,---,0.00,0.00,VWS V14.00,2013-01-24 11:18:00,
2013-01-24 06:23:00,33.5,26.4,30.01,WSW,242,0.0,2.0,75,0.00,,---,0.00,0.00,VWS V14.00,2013-01-24 11:23:00,
2013-01-24 06:28:00,33.5,26.4,30.01,WSW,242,0.0,2.0,75,0.00,,---,0.00,0.00,VWS V14.00,2013-01-24 11:28:00,
2013-01-24 06:33:00,33.7,26.6,30.02,WSW,242,0.0,0.0,75,0.00,,---,0.00,0.00,VWS V14.00,2013-01-24 11:33:00,
2013-01-24 06:38:00,33.7,26.6,30.02,WSW,242,0.0,2.0,75,0.00,,---,0.00,0.00,VWS V14.00,2013-01-24 11:38:00,
2013-01-24 06:43:00,33.7,26.6,30.03,WSW,242,0.0,2.0,75,0.00,,---,0.00,0.00,VWS V14.00,2013-01-24 11:43:00,
2013-01-24 06:48:00,33.7,26.6,30.03,WSW,242,0.0,2.0,75,0.00,,---,0.00,0.00,VWS V14.00,2013-01-24 11:48:00,
2013-01-24 06:53:00,33.7,26.6,30.04,NNW,339,0.0,4.0,75,0.00,,---,0.00,0.00,VWS V14.00,2013-01-24 11:53:00,
2013-01-24 06:58:00,33.5,26.1,30.05,NNW,339,0.0,4.0,74,0.00,,---,0.00,0.00,VWS V14.00,2013-01-24 11:58:00,
2013-01-24 07:03:00,33.5,26.1,30.06,North,355,0.0,4.0,74,0.00,,---,0.00,0.00,VWS V14.00,2013-01-24 12:03:00,
2013-01-24 07:08:00,33.4,26.3,30.07,North,349,2.0,4.0,75,0.00,,---,0.00,0.00,VWS V14.00,2013-01-24 12:08:00,
2013-01-24 07:13:00,33.5,26.4,30.08,North,360,1.0,4.0,75,0.00,,---,0.00,0.00,VWS V14.00,2013-01-24 12:13:00,
2013-01-24 07:18:00,33.7,26.3,30.08,North,360,0.0,4.0,74,0.00,,---,0.00,0.00,VWS V14.00,2013-01-24 12:18:00,
2013-01-24 07:23:00,33.7,26.0,30.08,North,360,0.0,4.0,73,0.00,,---,0.00,0.00,VWS V14.00,2013-01-24 12:23:00,
2013-01-24 07:28:00,33.7,26.0,30.09,North,360,2.0,4.0,73,0.00,,---,0.00,0.00,VWS V14.00,2013-01-24 12:28:00,
2013-01-24 07:33:00,33.7,25.6,30.09,North,360,0.0,0.0,72,0.00,,---,0.00,5.00,VWS V14.00,2013-01-24 12:33:00,
2013-01-24 07:38:00,33.7,25.6,30.09,North,360,0.0,0.0,72,0.00,,---,0.00,9.00,VWS V14.00,2013-01-24 12:38:00,
2013-01-24 07:43:00,33.7,25.6,30.10,North,360,0.0,0.0,72,0.00,,---,0.00,11.00,VWS V14.00,2013-01-24 12:43:00,
2013-01-24 07:48:00,33.7,26.0,30.10,North,360,1.0,1.0,73,0.00,,---,0.00,16.00,VWS V14.00,2013-01-24 12:48:00,
2013-01-24 07:53:00,33.7,25.6,30.10,North,360,0.0,2.0,72,0.00,,---,0.00,21.00,VWS V14.00,2013-01-24 12:53:00,
2013-01-24 07:58:00,33.7,25.3,30.11,North,360,0.0,3.0,71,0.00,,---,0.00,26.00,VWS V14.00,2013-01-24 12:58:00,
2013-01-24 08:03:00,33.7,25.0,30.11,NW,322,0.0,5.0,70,0.00,,---,0.00,35.00,VWS V14.00,2013-01-24 13:03:00,
2013-01-24 08:08:00,33.8,24.7,30.11,NNW,345,0.0,5.0,69,0.00,,---,0.00,44.00,VWS V14.00,2013-01-24 13:08:00,
2013-01-24 08:13:00,34.0,24.6,30.12,North,11,2.0,5.0,68,0.00,,---,0.00,47.00,VWS V14.00,2013-01-24 13:13:00,
2013-01-24 08:18:00,34.1,24.3,30.12,North,5,1.0,5.0,67,0.00,,---,0.00,58.00,VWS V14.00,2013-01-24 13:18:00,
2013-01-24 08:23:00,34.1,24.0,30.13,North,351,1.0,5.0,66,0.00,,---,0.00,72.00,VWS V14.00,2013-01-24 13:23:00,
2013-01-24 08:28:00,34.3,23.8,30.13,North,5,0.0,9.0,65,0.00,,---,0.00,79.00,VWS V14.00,2013-01-24 13:28:00,
2013-01-24 08:33:00,34.4,23.5,30.14,NNE,19,3.0,8.0,64,0.00,,---,0.00,91.00,VWS V14.00,2013-01-24 13:33:00,
2013-01-24 08:38:00,34.9,23.6,30.14,North,10,0.0,8.0,63,0.00,,---,0.00,91.00,VWS V14.00,2013-01-24 13:38:00,
2013-01-24 08:43:00,35.2,23.1,30.15,NNE,16,6.0,8.0,61,0.00,,---,0.00,91.00,VWS V14.00,2013-01-24 13:43:00,
2013-01-24 08:48:00,35.3,22.8,30.16,North,5,1.0,9.0,60,0.00,,---,0.00,95.00,VWS V14.00,2013-01-24 13:48:00,
2013-01-24 08:53:00,35.3,22.0,30.16,NNW,347,1.0,9.0,58,0.00,,---,0.00,97.00,VWS V14.00,2013-01-24 13:53:00,
2013-01-24 08:58:00,35.5,21.8,30.17,NNE,17,4.0,10.0,57,0.00,,---,0.00,102.00,VWS V14.00,2013-01-24 13:58:00,
2013-01-24 09:03:00,35.5,21.8,30.17,NNE,18,2.0,6.0,57,0.00,,---,0.00,104.00,VWS V14.00,2013-01-24 14:03:00,
2013-01-24 09:08:00,35.3,20.3,30.18,NE,53,2.0,13.0,54,0.00,,---,0.00,100.00,VWS V14.00,2013-01-24 14:08:00,
2013-01-24 09:13:00,35.3,19.9,30.18,NNE,25,4.0,13.0,53,0.00,,---,0.00,97.00,VWS V14.00,2013-01-24 14:13:00,
2013-01-24 09:18:00,35.3,19.5,30.19,NNE,17,5.0,14.0,52,0.00,,---,0.00,107.00,VWS V14.00,2013-01-24 14:18:00,
2013-01-24 09:23:00,35.6,18.8,30.19,North,355,11.0,14.0,50,0.00,,---,0.00,274.00,VWS V14.00,2013-01-24 14:23:00,
2013-01-24 09:28:00,35.9,18.1,30.19,NE,43,1.0,14.0,48,0.00,,---,0.00,193.00,VWS V14.00,2013-01-24 14:28:00,
2013-01-24 09:33:00,36.0,18.7,30.19,North,5,9.0,13.0,49,0.00,,---,0.00,199.00,VWS V14.00,2013-01-24 14:33:00,
2013-01-24 09:38:00,35.9,17.6,30.20,North,10,6.0,13.0,47,0.00,,---,0.00,130.00,VWS V14.00,2013-01-24 14:38:00,
2013-01-24 09:43:00,35.8,18.5,30.20,NNE,24,5.0,13.0,49,0.00,,---,0.00,209.00,VWS V14.00,2013-01-24 14:43:00,
2013-01-24 09:48:00,36.2,17.9,30.20,North,5,6.0,14.0,47,0.00,,---,0.00,362.00,VWS V14.00,2013-01-24 14:48:00,
2013-01-24 09:53:00,36.5,18.2,30.22,NNE,26,0.0,14.0,47,0.00,,---,0.00,330.00,VWS V14.00,2013-01-24 14:53:00,
2013-01-24 09:58:00,37.3,19.4,30.22,North,355,8.0,14.0,48,0.00,,---,0.00,420.00,VWS V14.00,2013-01-24 14:58:00,
2013-01-24 10:03:00,37.3,17.4,30.22,North,9,6.0,13.0,44,0.00,,---,0.00,469.00,VWS V14.00,2013-01-24 15:03:00,
2013-01-24 10:08:00,38.8,18.2,30.22,North,360,8.0,13.0,43,0.00,,---,0.00,417.00,VWS V14.00,2013-01-24 15:08:00,
2013-01-24 10:13:00,38.8,18.8,30.22,NNE,24,1.0,13.0,44,0.00,,---,0.00,454.00,VWS V14.00,2013-01-24 15:13:00,
2013-01-24 10:18:00,38.5,17.4,30.23,NNW,343,8.0,13.0,42,0.00,,---,0.00,237.00,VWS V14.00,2013-01-24 15:18:00,
2013-01-24 10:23:00,38.2,16.6,30.23,NNW,338,8.0,16.0,41,0.00,,---,0.00,367.00,VWS V14.00,2013-01-24 15:23:00,
2013-01-24 10:28:00,37.3,15.8,30.23,NE,37,5.0,17.0,41,0.00,,---,0.00,260.00,VWS V14.00,2013-01-24 15:28:00,
2013-01-24 10:33:00,37.8,16.8,30.23,NNW,345,2.0,15.0,42,0.00,,---,0.00,387.00,VWS V14.00,2013-01-24 15:33:00,
2013-01-24 10:38:00,37.9,16.9,30.24,NW,317,0.0,15.0,42,0.00,,---,0.00,555.00,VWS V14.00,2013-01-24 15:38:00,
2013-01-24 10:43:00,38.6,16.4,30.24,NNE,12,9.0,15.0,40,0.00,,---,0.00,471.00,VWS V14.00,2013-01-24 15:43:00,
2013-01-24 10:48:00,38.9,17.2,30.24,NE,42,7.0,17.0,41,0.00,,---,0.00,494.00,VWS V14.00,2013-01-24 15:48:00,
2013-01-24 10:53:00,39.2,16.3,30.25,North,351,1.0,17.0,39,0.00,,---,0.00,515.00,VWS V14.00,2013-01-24 15:53:00,
2013-01-24 10:58:00,39.5,16.6,30.25,NNE,15,3.0,17.0,39,0.00,,---,0.00,526.00,VWS V14.00,2013-01-24 15:58:00,
2013-01-24 11:03:00,39.5,16.0,30.25,NNW,328,1.0,11.0,38,0.00,,---,0.00,520.00,VWS V14.00,2013-01-24 16:03:00,
2013-01-24 11:08:00,40.1,17.7,30.25,NE,42,5.0,11.0,40,0.00,,---,0.00,575.00,VWS V14.00,2013-01-24 16:08:00,
2013-01-24 11:13:00,40.3,16.7,30.25,North,355,3.0,11.0,38,0.00,,---,0.00,580.00,VWS V14.00,2013-01-24 16:13:00,
2013-01-24 11:18:00,40.1,15.3,30.25,North,355,5.0,11.0,36,0.00,,---,0.00,555.00,VWS V14.00,2013-01-24 16:18:00,
2013-01-24 11:23:00,39.8,15.7,30.26,NNE,24,6.0,13.0,37,0.00,,---,0.00,563.00,VWS V14.00,2013-01-24 16:23:00,
2013-01-24 11:28:00,40.2,15.4,30.26,NNW,328,1.0,16.0,36,0.00,,---,0.00,534.00,VWS V14.00,2013-01-24 16:28:00,
2013-01-24 11:33:00,39.9,16.4,30.26,NE,35,3.0,15.0,38,0.00,,---,0.00,606.00,VWS V14.00,2013-01-24 16:33:00,
2013-01-24 11:38:00,40.5,15.7,30.26,NE,49,2.0,16.0,36,0.00,,---,0.00,679.00,VWS V14.00,2013-01-24 16:38:00,
2013-01-24 11:43:00,40.6,16.4,30.27,ESE,123,2.0,16.0,37,0.00,,---,0.00,552.00,VWS V14.00,2013-01-24 16:43:00,
2013-01-24 11:48:00,40.3,16.7,30.27,NNE,19,4.0,16.0,38,0.00,,---,0.00,526.00,VWS V14.00,2013-01-24 16:48:00,
2013-01-24 11:53:00,40.6,17.6,30.26,NNW,348,6.0,16.0,39,0.00,,---,0.00,517.00,VWS V14.00,2013-01-24 16:53:00,
2013-01-24 11:58:00,39.8,15.7,30.26,NE,55,4.0,23.0,37,0.00,,---,0.00,635.00,VWS V14.00,2013-01-24 16:58:00,
2013-01-24 12:03:00,39.9,16.4,30.26,WNW,302,5.0,16.0,38,0.00,,---,0.00,346.00,VWS V14.00,2013-01-24 17:03:00,
2013-01-24 12:08:00,39.5,15.4,30.27,NNW,341,2.0,17.0,37,0.00,,---,0.00,332.00,VWS V14.00,2013-01-24 17:08:00,
2013-01-24 12:13:00,39.5,15.4,30.27,NNW,334,3.0,17.0,37,0.00,,---,0.00,329.00,VWS V14.00,2013-01-24 17:13:00,
2013-01-24 12:18:00,39.2,13.9,30.27,NNE,21,10.0,17.0,35,0.00,,---,0.00,587.00,VWS V14.00,2013-01-24 17:18:00,
2013-01-24 12:23:00,39.9,16.4,30.27,NNW,331,9.0,17.0,38,0.00,,---,0.00,548.00,VWS V14.00,2013-01-24 17:23:00,
2013-01-24 12:28:00,40.2,13.4,30.28,WNW,296,3.0,17.0,33,0.00,,---,0.00,396.00,VWS V14.00,2013-01-24 17:28:00,
2013-01-24 12:33:00,39.5,12.8,30.28,NNE,19,6.0,14.0,33,0.00,,---,0.00,367.00,VWS V14.00,2013-01-24 17:33:00,
2013-01-24 12:38:00,39.8,13.1,30.28,West,270,3.0,14.0,33,0.00,,---,0.00,707.00,VWS V14.00,2013-01-24 17:38:00,
2013-01-24 12:43:00,39.8,14.4,30.28,East,86,7.0,17.0,35,0.00,,---,0.00,304.00,VWS V14.00,2013-01-24 17:43:00,
2013-01-24 12:48:00,38.9,14.9,30.28,North,9,6.0,21.0,37,0.00,,---,0.00,446.00,VWS V14.00,2013-01-24 17:48:00,
2013-01-24 12:53:00,38.6,13.3,30.28,NNE,19,8.0,21.0,35,0.00,,---,0.00,424.00,VWS V14.00,2013-01-24 17:53:00,
2013-01-24 12:58:00,38.5,13.2,30.29,North,360,4.0,21.0,35,0.00,,---,0.00,271.00,VWS V14.00,2013-01-24 17:58:00,
2013-01-24 13:03:00,37.9,14.0,30.29,North,10,0.0,6.0,37,0.00,,---,0.00,278.00,VWS V14.00,2013-01-24 18:03:00,
2013-01-24 13:08:00,38.3,11.7,30.29,North,360,10.0,14.0,33,0.00,,---,0.00,332.00,VWS V14.00,2013-01-24 18:08:00,
2013-01-24 13:13:00,37.6,11.8,30.30,NNW,331,3.0,16.0,34,0.00,,---,0.00,236.00,VWS V14.00,2013-01-24 18:13:00,
2013-01-24 13:18:00,38.0,10.8,30.30,NNE,21,6.0,17.0,32,0.00,,---,0.00,287.00,VWS V14.00,2013-01-24 18:18:00,
2013-01-24 13:23:00,38.0,10.8,30.31,NNE,31,12.0,17.0,32,0.00,,---,0.00,522.00,VWS V14.00,2013-01-24 18:23:00,
2013-01-24 13:28:00,37.6,9.0,30.31,NNW,333,6.0,17.0,30,0.00,,---,0.00,536.00,VWS V14.00,2013-01-24 18:28:00,
2013-01-24 13:33:00,37.8,9.9,30.31,North,5,16.0,17.0,31,0.00,,---,0.00,598.00,VWS V14.00,2013-01-24 18:33:00,
2013-01-24 13:38:00,37.9,9.2,30.31,North,9,3.0,17.0,30,0.00,,---,0.00,578.00,VWS V14.00,2013-01-24 18:38:00,
2013-01-24 13:43:00,38.3,8.8,30.32,North,350,3.0,17.0,29,0.00,,---,0.00,575.00,VWS V14.00,2013-01-24 18:43:00,
2013-01-24 13:48:00,38.9,8.6,30.32,NW,306,3.0,17.0,28,0.00,,---,0.00,538.00,VWS V14.00,2013-01-24 18:48:00,
2013-01-24 13:53:00,39.2,8.9,30.32,West,259,1.0,17.0,28,0.00,,---,0.00,552.00,VWS V14.00,2013-01-24 18:53:00,
2013-01-24 13:58:00,38.3,7.3,30.32,NNW,340,5.0,17.0,27,0.00,,---,0.00,533.00,VWS V14.00,2013-01-24 18:58:00,
2013-01-24 14:03:00,38.2,8.0,30.32,North,355,9.0,11.0,28,0.00,,---,0.00,508.00,VWS V14.00,2013-01-24 19:03:00,
2013-01-24 14:08:00,38.3,6.4,30.32,NNE,17,5.0,12.0,26,0.00,,---,0.00,520.00,VWS V14.00,2013-01-24 19:08:00,
2013-01-24 14:13:00,37.9,6.1,30.32,North,355,4.0,17.0,26,0.00,,---,0.00,371.00,VWS V14.00,2013-01-24 19:13:00,
2013-01-24 14:18:00,37.5,6.6,30.33,NE,36,6.0,17.0,27,0.00,,---,0.00,541.00,VWS V14.00,2013-01-24 19:18:00,
2013-01-24 14:23:00,37.0,6.9,30.33,North,360,4.0,17.0,28,0.00,,---,0.00,455.00,VWS V14.00,2013-01-24 19:23:00,
2013-01-24 14:28:00,36.9,6.1,30.33,NNE,27,13.0,17.0,27,0.00,,---,0.00,362.00,VWS V14.00,2013-01-24 19:28:00,
2013-01-24 14:33:00,36.3,5.5,30.34,NE,39,6.0,17.0,27,0.00,,---,0.00,468.00,VWS V14.00,2013-01-24 19:33:00,
2013-01-24 14:38:00,36.5,4.9,30.34,NW,325,5.0,17.0,26,0.00,,---,0.00,487.00,VWS V14.00,2013-01-24 19:38:00,
2013-01-24 14:43:00,36.9,3.5,30.34,North,5,6.0,17.0,24,0.00,,---,0.00,445.00,VWS V14.00,2013-01-24 19:43:00,
2013-01-24 14:48:00,36.8,2.5,30.34,North,5,8.0,17.0,23,0.00,,---,0.00,438.00,VWS V14.00,2013-01-24 19:48:00,
2013-01-24 14:53:00,36.2,2.9,30.35,NNW,347,6.0,18.0,24,0.00,,---,0.00,362.00,VWS V14.00,2013-01-24 19:53:00,
2013-01-24 14:58:00,35.8,2.5,30.36,NNW,333,4.0,18.0,24,0.00,,---,0.00,213.00,VWS V14.00,2013-01-24 19:58:00,
2013-01-24 15:03:00,35.9,3.5,30.36,NNE,23,3.0,18.0,25,0.00,,---,0.00,251.00,VWS V14.00,2013-01-24 20:03:00,
2013-01-24 15:08:00,36.0,4.4,30.37,NNW,344,6.0,18.0,26,0.00,,---,0.00,250.00,VWS V14.00,2013-01-24 20:08:00,
2013-01-24 15:13:00,35.9,2.6,30.36,North,350,0.0,18.0,24,0.00,,---,0.00,281.00,VWS V14.00,2013-01-24 20:13:00,
2013-01-24 15:18:00,35.6,1.5,30.37,NNW,345,4.0,18.0,23,0.00,,---,0.00,359.00,VWS V14.00,2013-01-24 20:18:00,
2013-01-24 15:23:00,35.6,3.3,30.36,NNW,348,4.0,18.0,25,0.00,,---,0.00,220.00,VWS V14.00,2013-01-24 20:23:00,
2013-01-24 15:28:00,35.3,2.1,30.36,NE,44,2.0,18.0,24,0.00,,---,0.00,200.00,VWS V14.00,2013-01-24 20:28:00,
2013-01-24 15:33:00,35.0,2.8,30.37,NNW,344,2.0,12.0,25,0.00,,---,0.00,227.00,VWS V14.00,2013-01-24 20:33:00,
2013-01-24 15:38:00,35.0,1.9,30.38,NNW,341,2.0,12.0,24,0.00,,---,0.00,200.00,VWS V14.00,2013-01-24 20:38:00,
2013-01-24 15:43:00,35.0,2.8,30.38,North,5,5.0,14.0,25,0.00,,---,0.00,199.00,VWS V14.00,2013-01-24 20:43:00,
2013-01-24 15:48:00,34.7,1.6,30.39,NE,53,5.0,21.0,24,0.00,,---,0.00,155.00,VWS V14.00,2013-01-24 20:48:00,
2013-01-24 15:53:00,34.4,1.4,30.39,North,355,3.0,21.0,24,0.00,,---,0.00,148.00,VWS V14.00,2013-01-24 20:53:00,
2013-01-24 15:58:00,34.4,1.4,30.39,NW,313,0.0,21.0,24,0.00,,---,0.00,134.00,VWS V14.00,2013-01-24 20:58:00,
2013-01-24 16:03:00,34.6,3.2,30.39,NNW,336,0.0,7.0,26,0.00,,---,0.00,142.00,VWS V14.00,2013-01-24 21:03:00,
2013-01-24 16:08:00,34.6,2.4,30.40,NE,35,0.0,8.0,25,0.00,,---,0.00,130.00,VWS V14.00,2013-01-24 21:08:00,
2013-01-24 16:13:00,34.6,2.4,30.40,North,9,0.0,10.0,25,0.00,,---,0.00,107.00,VWS V14.00,2013-01-24 21:13:00,
2013-01-24 16:18:00,34.6,3.2,30.41,NW,321,2.0,10.0,26,0.00,,---,0.00,144.00,VWS V14.00,2013-01-24 21:18:00,
2013-01-24 16:23:00,34.3,1.3,30.41,NNW,331,0.0,10.0,24,0.00,,---,0.00,137.00,VWS V14.00,2013-01-24 21:23:00,
2013-01-24 16:28:00,34.4,3.1,30.40,NNE,15,0.0,10.0,26,0.00,,---,0.00,91.00,VWS V14.00,2013-01-24 21:28:00,
2013-01-24 16:33:00,34.3,2.2,30.40,North,5,8.0,9.0,25,0.00,,---,0.00,91.00,VWS V14.00,2013-01-24 21:33:00,
2013-01-24 16:38:00,34.1,2.0,30.41,North,355,0.0,9.0,25,0.00,,---,0.00,56.00,VWS V14.00,2013-01-24 21:38:00,
2013-01-24 16:43:00,34.1,2.0,30.41,NNE,13,0.0,9.0,25,0.00,,---,0.00,46.00,VWS V14.00,2013-01-24 21:43:00,
2013-01-24 16:48:00,34.0,1.9,30.42,North,5,2.0,9.0,25,0.00,,---,0.00,42.00,VWS V14.00,2013-01-24 21:48:00,
2013-01-24 16:53:00,33.8,1.7,30.42,North,10,4.0,9.0,25,0.00,,---,0.00,35.00,VWS V14.00,2013-01-24 21:53:00,
2013-01-24 16:58:00,33.7,1.6,30.42,NW,322,2.0,9.0,25,0.00,,---,0.00,39.00,VWS V14.00,2013-01-24 21:58:00,
2013-01-24 17:03:00,33.5,3.1,30.42,North,9,2.0,4.0,27,0.00,,---,0.00,21.00,VWS V14.00,2013-01-24 22:03:00,
2013-01-24 17:08:00,33.2,2.0,30.42,North,5,1.0,5.0,26,0.00,,---,0.00,21.00,VWS V14.00,2013-01-24 22:08:00,
2013-01-24 17:13:00,32.9,2.6,30.42,North,360,1.0,5.0,27,0.00,,---,0.00,18.00,VWS V14.00,2013-01-24 22:13:00,
2013-01-24 17:18:00,32.8,3.3,30.43,North,5,0.0,5.0,28,0.00,,---,0.00,16.00,VWS V14.00,2013-01-24 22:18:00,
2013-01-24 17:23:00,32.7,2.4,30.44,NNW,348,0.0,5.0,27,0.00,,---,0.00,12.00,VWS V14.00,2013-01-24 22:23:00,
2013-01-24 17:28:00,32.5,3.0,30.44,NNW,348,0.0,5.0,28,0.00,,---,0.00,5.00,VWS V14.00,2013-01-24 22:28:00,
2013-01-24 17:33:00,32.2,2.8,30.43,NNW,334,0.0,3.0,28,0.00,,---,0.00,0.00,VWS V14.00,2013-01-24 22:33:00,
2013-01-24 17:38:00,32.1,2.7,30.44,North,5,0.0,5.0,28,0.00,,---,0.00,0.00,VWS V14.00,2013-01-24 22:38:00,
2013-01-24 17:43:00,31.9,2.5,30.44,North,5,0.0,5.0,28,0.00,,---,0.00,0.00,VWS V14.00,2013-01-24 22:43:00,
2013-01-24 17:48:00,31.8,2.4,30.44,NNW,335,3.0,5.0,28,0.00,,---,0.00,0.00,VWS V14.00,2013-01-24 22:48:00,
2013-01-24 17:53:00,31.6,1.5,30.44,NNW,347,0.0,5.0,27,0.00,,---,0.00,0.00,VWS V14.00,2013-01-24 22:53:00,
2013-01-24 17:58:00,31.5,2.2,30.44,NNE,15,0.0,5.0,28,0.00,,---,0.00,0.00,VWS V14.00,2013-01-24 22:58:00,
2013-01-24 18:03:00,31.3,2.7,30.45,NNE,15,0.0,0.0,29,0.00,,---,0.00,0.00,VWS V14.00,2013-01-24 23:03:00,
2013-01-24 18:08:00,31.2,3.4,30.45,NNE,15,0.0,0.0,30,0.00,,---,0.00,0.00,VWS V14.00,2013-01-24 23:08:00,
2013-01-24 18:13:00,31.0,3.2,30.45,NNE,15,0.0,0.0,30,0.00,,---,0.00,0.00,VWS V14.00,2013-01-24 23:13:00,
2013-01-24 18:18:00,30.9,3.8,30.46,NNE,15,0.0,0.0,31,0.00,,---,0.00,0.00,VWS V14.00,2013-01-24 23:18:00,
2013-01-24 18:23:00,30.6,4.9,30.46,NNE,15,0.0,1.0,33,0.00,,---,0.00,0.00,VWS V14.00,2013-01-24 23:23:00,
2013-01-24 18:28:00,30.3,5.9,30.46,NNW,342,0.0,3.0,35,0.00,,---,0.00,0.00,VWS V14.00,2013-01-24 23:28:00,
2013-01-24 18:33:00,30.0,6.3,30.46,NNW,342,0.0,2.0,36,0.00,,---,0.00,0.00,VWS V14.00,2013-01-24 23:33:00,
2013-01-24 18:38:00,29.8,6.7,30.47,NNW,347,0.0,3.0,37,0.00,,---,0.00,0.00,VWS V14.00,2013-01-24 23:38:00,
2013-01-24 18:43:00,29.7,7.2,30.48,NNW,347,0.0,3.0,38,0.00,,---,0.00,0.00,VWS V14.00,2013-01-24 23:43:00,
2013-01-24 18:48:00,29.5,7.6,30.47,NNW,347,0.0,3.0,39,0.00,,---,0.00,0.00,VWS V14.00,2013-01-24 23:48:00,
2013-01-24 18:53:00,29.4,6.9,30.47,NE,35,2.0,4.0,38,0.00,,---,0.00,0.00,VWS V14.00,2013-01-24 23:53:00,
2013-01-24 18:58:00,29.3,7.4,30.47,NE,35,0.0,4.0,39,0.00,,---,0.00,0.00,VWS V14.00,2013-01-24 23:58:00,
2013-01-24 19:03:00,29.3,7.4,30.48,NE,35,0.0,0.0,39,0.00,,---,0.00,0.00,VWS V14.00,2013-01-25 00:03:00,
2013-01-24 19:08:00,29.3,8.5,30.48,NE,35,0.0,1.0,41,0.00,,---,0.00,0.00,VWS V14.00,2013-01-25 00:08:00,
2013-01-24 19:13:00,29.1,7.2,30.48,NE,34,0.0,1.0,39,0.00,,---,0.00,0.00,VWS V14.00,2013-01-25 00:13:00,
2013-01-24 19:18:00,29.0,7.7,30.48,NNE,12,0.0,3.0,40,0.00,,---,0.00,0.00,VWS V14.00,2013-01-25 00:18:00,
2013-01-24 19:23:00,28.8,7.5,30.48,NNE,12,0.0,3.0,40,0.00,,---,0.00,0.00,VWS V14.00,2013-01-25 00:23:00,
2013-01-24 19:28:00,28.8,8.1,30.48,NNE,12,0.0,3.0,41,0.00,,---,0.00,0.00,VWS V14.00,2013-01-25 00:28:00,
2013-01-24 19:33:00,28.7,8.0,30.49,NNW,345,1.0,1.0,41,0.00,,---,0.00,0.00,VWS V14.00,2013-01-25 00:33:00,
2013-01-24 19:38:00,28.7,8.0,30.49,North,349,0.0,1.0,41,0.00,,---,0.00,0.00,VWS V14.00,2013-01-25 00:38:00,
2013-01-24 19:43:00,28.5,8.3,30.49,North,349,0.0,1.0,42,0.00,,---,0.00,0.00,VWS V14.00,2013-01-25 00:43:00,
2013-01-24 19:48:00,28.4,8.2,30.49,NE,35,0.0,3.0,42,0.00,,---,0.00,0.00,VWS V14.00,2013-01-25 00:48:00,
2013-01-24 19:53:00,28.4,8.2,30.49,NE,35,0.0,3.0,42,0.00,,---,0.00,0.00,VWS V14.00,2013-01-25 00:53:00,
2013-01-24 19:58:00,28.2,7.5,30.50,NE,35,0.0,3.0,41,0.00,,---,0.00,0.00,VWS V14.00,2013-01-25 00:58:00,
2013-01-24 20:03:00,28.1,8.5,30.50,NE,35,0.0,0.0,43,0.00,,---,0.00,0.00,VWS V14.00,2013-01-25 01:03:00,
2013-01-24 20:08:00,28.1,8.5,30.49,NE,35,0.0,0.0,43,0.00,,---,0.00,0.00,VWS V14.00,2013-01-25 01:08:00,
2013-01-24 20:13:00,27.9,7.8,30.50,NE,35,0.0,2.0,42,0.00,,---,0.00,0.00,VWS V14.00,2013-01-25 01:13:00,
2013-01-24 20:18:00,27.9,8.3,30.50,NE,35,0.0,2.0,43,0.00,,---,0.00,0.00,VWS V14.00,2013-01-25 01:18:00,
2013-01-24 20:23:00,27.8,8.2,30.50,NE,35,0.0,3.0,43,0.00,,---,0.00,0.00,VWS V14.00,2013-01-25 01:23:00,
2013-01-24 20:28:00,27.8,8.2,30.50,NE,38,0.0,3.0,43,0.00,,---,0.00,0.00,VWS V14.00,2013-01-25 01:28:00,
2013-01-24 20:33:00,27.6,8.6,30.50,NE,38,0.0,0.0,44,0.00,,---,0.00,0.00,VWS V14.00,2013-01-25 01:33:00,
2013-01-24 20:38:00,27.6,9.1,30.50,NE,38,0.0,0.0,45,0.00,,---,0.00,0.00,VWS V14.00,2013-01-25 01:38:00,
2013-01-24 20:43:00,27.5,8.5,30.51,NE,38,0.0,2.0,44,0.00,,---,0.00,0.00,VWS V14.00,2013-01-25 01:43:00,
2013-01-24 20:48:00,27.3,8.8,30.51,NE,38,0.0,2.0,45,0.00,,---,0.00,0.00,VWS V14.00,2013-01-25 01:48:00,
2013-01-24 20:53:00,27.3,8.3,30.50,NE,38,0.0,2.0,44,0.00,,---,0.00,0.00,VWS V14.00,2013-01-25 01:53:00,
2013-01-24 20:58:00,27.2,8.2,30.50,NE,38,0.0,2.0,44,0.00,,---,0.00,0.00,VWS V14.00,2013-01-25 01:58:00,
2013-01-24 21:02:00,27.0,9.0,30.50,NE,38,0.0,0.0,46,0.00,,---,0.00,0.00,VWS V14.00,2013-01-25 02:02:00,
2013-01-24 21:07:00,27.0,8.5,30.50,NE,38,0.0,1.0,45,0.00,,---,0.00,0.00,VWS V14.00,2013-01-25 02:07:00,
2013-01-24 21:12:00,26.7,7.7,30.50,NE,38,0.0,2.0,44,0.00,,---,0.00,0.00,VWS V14.00,2013-01-25 02:12:00,
2013-01-24 21:17:00,26.7,9.2,30.51,NE,38,0.0,2.0,47,0.00,,---,0.00,0.00,VWS V14.00,2013-01-25 02:17:00,
2013-01-24 21:22:00,26.6,8.6,30.51,NE,38,0.0,2.0,46,0.00,,---,0.00,0.00,VWS V14.00,2013-01-25 02:22:00,
2013-01-24 21:27:00,26.4,7.5,30.50,NE,38,0.0,2.0,44,0.00,,---,0.00,0.00,VWS V14.00,2013-01-25 02:27:00,
2013-01-24 21:32:00,26.4,7.9,30.51,NE,38,0.0,0.0,45,0.00,,---,0.00,0.00,VWS V14.00,2013-01-25 02:32:00,
2013-01-24 21:37:00,26.3,8.4,30.50,NE,38,0.0,2.0,46,0.00,,---,0.00,0.00,VWS V14.00,2013-01-25 02:37:00,
2013-01-24 21:42:00,26.3,7.9,30.50,NE,38,1.0,2.0,45,0.00,,---,0.00,0.00,VWS V14.00,2013-01-25 02:42:00,
2013-01-24 21:47:00,26.1,7.7,30.50,NE,46,0.0,3.0,45,0.00,,---,0.00,0.00,VWS V14.00,2013-01-25 02:47:00,
2013-01-24 21:52:00,26.1,8.2,30.50,NE,46,0.0,3.0,46,0.00,,---,0.00,0.00,VWS V14.00,2013-01-25 02:52:00,
2013-01-24 21:57:00,26.1,8.2,30.50,NE,42,1.0,4.0,46,0.00,,---,0.00,0.00,VWS V14.00,2013-01-25 02:57:00,
2013-01-24 22:02:00,26.1,7.7,30.50,NE,38,0.0,0.0,45,0.00,,---,0.00,0.00,VWS V14.00,2013-01-25 03:02:00,
2013-01-24 22:07:00,26.0,8.6,30.51,ENE,60,0.0,1.0,47,0.00,,---,0.00,0.00,VWS V14.00,2013-01-25 03:07:00,
2013-01-24 22:12:00,26.0,8.1,30.50,NE,42,3.0,3.0,46,0.00,,---,0.00,0.00,VWS V14.00,2013-01-25 03:12:00,
2013-01-24 22:17:00,25.8,6.9,30.50,NE,39,0.0,5.0,44,0.00,,---,0.00,0.00,VWS V14.00,2013-01-25 03:17:00,
2013-01-24 22:22:00,25.8,7.4,30.50,NE,48,0.0,5.0,45,0.00,,---,0.00,0.00,VWS V14.00,2013-01-25 03:22:00,
2013-01-24 22:27:00,25.8,7.4,30.51,NE,48,0.0,5.0,45,0.00,,---,0.00,0.00,VWS V14.00,2013-01-25 03:27:00,
2013-01-24 22:32:00,25.8,6.9,30.51,NE,48,0.0,2.0,44,0.00,,---,0.00,0.00,VWS V14.00,2013-01-25 03:32:00,
2013-01-24 22:37:00,25.7,6.8,30.51,NE,48,0.0,2.0,44,0.00,,---,0.00,0.00,VWS V14.00,2013-01-25 03:37:00,
2013-01-24 22:42:00,25.7,6.8,30.51,NE,48,0.0,2.0,44,0.00,,---,0.00,0.00,VWS V14.00,2013-01-25 03:42:00,
2013-01-24 22:47:00,25.7,6.3,30.50,NE,36,0.0,2.0,43,0.00,,---,0.00,0.00,VWS V14.00,2013-01-25 03:47:00,
2013-01-24 22:52:00,25.6,6.7,30.50,NE,36,0.0,2.0,44,0.00,,---,0.00,0.00,VWS V14.00,2013-01-25 03:52:00,
2013-01-24 22:57:00,25.6,6.7,30.50,NNE,22,0.0,2.0,44,0.00,,---,0.00,0.00,VWS V14.00,2013-01-25 03:57:00,
2013-01-24 23:02:00,25.4,6.0,30.51,NNE,29,0.0,1.0,43,0.00,,---,0.00,0.00,VWS V14.00,2013-01-25 04:02:00,
2013-01-24 23:07:00,25.4,6.0,30.51,NNE,29,0.0,2.0,43,0.00,,---,0.00,0.00,VWS V14.00,2013-01-25 04:07:00,
2013-01-24 23:12:00,25.3,5.9,30.50,NNE,29,0.0,3.0,43,0.00,,---,0.00,0.00,VWS V14.00,2013-01-25 04:12:00,
2013-01-24 23:17:00,25.3,6.4,30.50,NNE,29,0.0,3.0,44,0.00,,---,0.00,0.00,VWS V14.00,2013-01-25 04:17:00,
2013-01-24 23:22:00,25.1,6.3,30.50,NNE,30,0.0,3.0,44,0.00,,---,0.00,0.00,VWS V14.00,2013-01-25 04:22:00,
2013-01-24 23:27:00,25.1,7.2,30.50,NNE,30,0.0,3.0,46,0.00,,---,0.00,0.00,VWS V14.00,2013-01-25 04:27:00,
2013-01-24 23:32:00,25.0,6.2,30.51,NNE,32,0.0,0.0,44,0.00,,---,0.00,0.00,VWS V14.00,2013-01-25 04:32:00,
2013-01-24 23:37:00,25.0,6.2,30.51,NNE,32,0.0,1.0,44,0.00,,---,0.00,0.00,VWS V14.00,2013-01-25 04:37:00,
2013-01-24 23:42:00,24.8,6.0,30.51,NNE,32,0.0,1.0,44,0.00,,---,0.00,0.00,VWS V14.00,2013-01-25 04:42:00,
2013-01-24 23:47:00,24.8,5.5,30.51,NNE,32,0.0,1.0,43,0.00,,---,0.00,0.00,VWS V14.00,2013-01-25 04:47:00,
2013-01-24 23:52:00,24.7,5.9,30.51,NNE,32,0.0,1.0,44,0.00,,---,0.00,0.00,VWS V14.00,2013-01-25 04:52:00,
2013-01-24 23:57:00,24.7,5.4,30.51,NNE,32,0.0,2.0,43,0.00,,---,0.00,0.00,VWS V14.00,2013-01-25 04:57:00,